AO-07 1 07530U 74089B 23271.61933653 -.00000023 00000-0 14806-3 0 9992 2 07530 101.9587 259.0301 0011890 225.3452 249.9034 12.53667427236139 UO-11 1 14781U 84021B 23271.48173487 .00002737 00000-0 32431-3 0 9998 2 14781 97.6694 244.4975 0007029 212.4608 147.6176 14.85311135109475 AO-16 1 20439U 90005D 23271.58010969 .00000353 00000-0 14556-3 0 9990 2 20439 98.8922 264.5053 0009636 260.2957 214.6375 14.33169845759966 LO-19 1 20442U 90005G 23271.48837058 .00000357 00000-0 14633-3 0 9999 2 20442 98.8562 250.2700 0010760 233.0307 126.9892 14.33323980760141 AO-27 1 22825U 93061C 23271.59945008 .00000225 00000-0 10415-3 0 9996 2 22825 98.8309 316.1071 0009383 122.6913 237.5175 14.30350897565077 IO-26 1 22826U 93061D 23271.57662532 .00000256 00000-0 11536-3 0 9992 2 22826 98.8255 315.9456 0010028 110.0724 250.1538 14.30717172565348 FO-29 1 24278U 96046B 23271.48595883 .00000003 00000-0 36924-4 0 9994 2 24278 98.5423 236.0218 0350737 148.8434 213.4027 13.53154946338908 NOAA-15 1 25338U 98030A 23271.69544708 .00000298 00000-0 14205-3 0 9993 2 25338 98.5997 298.9543 0010562 17.9825 342.1727 14.26397545320014 GO-32 1 25397U 98043D 23271.51641898 .00000204 00000-0 10870-3 0 9992 2 25397 98.8809 229.9182 0001357 149.3697 210.7561 14.23914810310030 ISS 1 25544U 98067A 23271.82064778 .00028913 00000-0 51495-3 0 9997 2 25544 51.6418 175.2116 0005781 68.6872 41.1339 15.49864109417862 NO-44 1 26931U 01043C 23271.43428338 .00000308 00000-0 14828-3 0 9996 2 26931 67.0498 290.2200 0007246 258.3710 101.6579 14.30991108148353 SO-50 1 27607U 02058C 23271.52296348 .00002048 00000-0 29723-3 0 9991 2 27607 64.5554 308.0500 0057783 202.7542 157.1000 14.77673511117499 CO-55 1 27844U 03031E 23271.55248098 .00000614 00000-0 29247-3 0 9996 2 27844 98.6809 277.3129 0009684 179.4908 180.6282 14.22889685 50435 CO-57 1 27848U 03031J 23271.52930067 .00000520 00000-0 25333-3 0 9999 2 27848 98.6844 277.6645 0009292 195.0523 165.0380 14.22385220 50191 RS-22 1 27939U 03042A 23271.70425965 .00002354 00000-0 41233-3 0 9992 2 27939 98.2578 59.5496 0012722 164.7744 320.9114 14.68730467 69737 NOAA-18 1 28654U 05018A 23271.73455175 .00000309 00000-0 18920-3 0 9996 2 28654 98.9022 345.5902 0015273 87.9346 272.3575 14.13015430946192 CO-58 1 28895U 05043F 23271.34914352 .00002719 00000-0 50297-3 0 9995 2 28895 98.1675 42.7253 0017315 106.5993 253.7114 14.66087800955926 CO-65 1 32785U 08021C 23271.49639879 .00005607 00000-0 54129-3 0 9998 2 32785 97.7172 235.3589 0013500 116.2309 244.0300 14.93177040836305 AAUSAT2 1 32788U 08021F 23271.40555088 .00014677 00000-0 10011-2 0 9999 2 32788 97.5706 248.7375 0008211 23.4326 336.7274 15.06295333838639 DO-64 1 32789U 08021G 23271.62632136 .00171191 00000-0 23894-2 0 9992 2 32789 97.2903 293.5715 0008002 111.6069 248.6040 15.56257704843457 CO-66 1 32791U 08021J 23271.38490721 .00008424 00000-0 71501-3 0 9997 2 32791 97.6660 240.6053 0013235 70.2289 290.0359 14.98090386837105 RS-30 1 32953U 08025A 23271.70367837 .00000018 00000-0 62002-4 0 9996 2 32953 82.4988 252.6996 0018773 322.2890 37.6872 12.43129628696512 PRISM 1 33493U 09002B 23271.59354457 .00013642 00000-0 86616-3 0 9996 2 33493 98.2427 293.5282 0016943 63.4656 296.8305 15.08891811799325 NOAA-19 1 33591U 09005A 23271.72127365 .00000280 00000-0 17535-3 0 9997 2 33591 99.0892 319.2535 0013068 314.4051 45.6050 14.12829326754569 SRMSAT 1 37841U 11058D 23271.49132234 .00000593 00000-0 18050-3 0 9995 2 37841 19.9725 305.4185 0012056 87.1139 59.4822 14.10949106617411 HRBE 1 37855U 11061F 23271.62955528 .00037471 00000-0 99405-3 0 9996 2 37855 101.7089 292.2217 0106232 82.0986 279.2282 15.32609109652379 RS-40 1 38735U 12041C 23271.61686202 .00000041 00000-0 22354-3 0 9994 2 38735 82.4791 333.6071 0018366 73.5656 286.7440 12.42596305506568 ZACUBE-1 1 39417U 13066B 23271.43464740 .00006140 00000-0 69349-3 0 9992 2 39417 97.6964 229.5920 0052491 309.2479 50.4085 14.85869403532528 Delfi-N3xt 1 39428U 13066N 23271.62089831 .00005272 00000-0 74239-3 0 9998 2 39428 97.8307 192.8491 0107105 216.0777 143.3172 14.73799701527362 GOMX-1 1 39430U 13066Q 23271.73480596 .00003836 00000-0 66206-3 0 9995 2 39430 97.7636 156.7921 0144769 6.2867 354.0108 14.62314594524663 LO-74 1 39440U 13066AA 23271.42284251 .00005129 00000-0 64944-3 0 9996 2 39440 97.7804 216.8911 0075861 52.1198 308.6844 14.80174352529428 AO-73 1 39444U 13066AE 23271.40725214 .00006232 00000-0 67252-3 0 9998 2 39444 97.6825 232.2159 0050192 293.2229 66.3707 14.87796443530980 SPROUT 1 39770U 14029E 23271.31403040 .00033418 00000-0 22079-2 0 9993 2 39770 97.9971 42.0376 0005937 318.9083 41.1696 15.07310718507662 DTUSAT-2 1 40030U 14033W 23271.38750598 .00007224 00000-0 68012-3 0 9993 2 40030 97.9734 213.3458 0009151 318.6840 41.3687 14.94133638503403 EO-80 1 40032U 14033Y 23271.36267133 .00006332 00000-0 59668-3 0 9997 2 40032 97.9726 213.3370 0009403 318.8427 41.2083 14.94146646503370 HODOYOSHI-1 1 40299U 14070B 23271.69819235 .00015189 00000-0 43034-3 0 9995 2 40299 97.1833 331.7851 0008256 264.9035 95.1268 15.36319004494689 GRIFEX 1 40379U 15003D 23271.64671439 .00067864 00000-0 10617-2 0 9995 2 40379 99.0810 234.1895 0061191 271.4446 87.9792 15.51355773479363 XW-2C 1 40906U 15049H 23271.70634429 .00017353 00000-0 61115-3 0 9994 2 40906 97.4943 279.3929 0012157 147.0877 213.1122 15.29301121444209 XW-2D 1 40907U 15049J 23271.76959503 .00021545 00000-0 69940-3 0 9996 2 40907 97.4917 280.3145 0011526 138.5368 221.6750 15.31904562444327 LILACSAT-2 1 40908U 15049K 23271.68524608 .00008389 00000-0 37940-3 0 9998 2 40908 97.5282 274.5629 0013430 180.7045 179.4174 15.21098045443523 XW-2E 1 40909U 15049L 23271.69516385 .00050697 00000-0 10254-2 0 9990 2 40909 97.4479 287.8023 0009913 105.8913 254.3429 15.46245714445093 XW-2F 1 40910U 15049M 23271.73994307 .00049923 00000-0 10369-2 0 9998 2 40910 97.4574 287.1068 0010631 108.1528 252.0879 15.45464255444837 XW-2B 1 40911U 15049N 23271.78241728 .00021841 00000-0 71511-3 0 9992 2 40911 97.4894 280.6954 0011427 140.2261 219.9820 15.31626675444200 DCBB 1 40912U 15049P 23271.71356955 .00078783 00000-0 11702-2 0 9997 2 40912 97.4076 292.2464 0009112 73.3446 286.8807 15.54878196445635 IO-86 1 40931U 15052B 23271.72089044 .00001517 00000-0 11963-3 0 9996 2 40931 6.0002 67.3835 0013400 319.8630 40.0508 14.77376768432683 ChubuSat-2 1 41338U 16012B 23271.44723806 .00005578 00000-0 37836-3 0 9993 2 41338 31.0021 277.2213 0012001 129.6873 230.4823 15.04877341417949 ChubuSat-3 1 41339U 16012C 23271.65349063 .00005008 00000-0 34115-3 0 9991 2 41339 31.0084 273.2452 0011976 138.4813 221.6735 15.04654632417964 Horyu-4 1 41340U 16012D 23271.27012071 .00009512 00000-0 57190-3 0 9999 2 41340 31.0030 239.5181 0011592 199.8320 160.1868 15.09525597418304 e-st@r-II 1 41459U 16025D 23271.71839165 .00044711 00000-0 10550-2 0 9992 2 41459 98.1723 124.0072 0093651 96.7527 264.4383 15.37204752408762 LO-87 1 41557U 16033B 23271.63966207 .00326339 00000-0 12729-2 0 9998 2 41557 97.3859 25.2005 0001881 227.3458 132.7655 15.86248359409854 NuSat2 1 41558U 16033C 23271.63856229 .01085160 70273-3 12657-2 0 9998 2 41558 97.4187 34.9535 0007473 274.0112 86.0317 16.08891312410276 Lapan A3 1 41603U 16040E 23271.75446371 .00003503 00000-0 15134-3 0 9995 2 41603 97.1616 292.5454 0011112 317.2969 42.7404 15.23056964403256 Pratham 1 41783U 16059A 23271.56466487 .00001233 00000-0 24128-3 0 9994 2 41783 97.8627 298.0577 0034029 131.6282 228.7844 14.64156422374108 TY-1 1 41844U 16066D 23271.74278870 .00201220 00000-0 13969-2 0 9995 2 41844 97.3560 295.1304 0005467 67.2153 292.9688 15.73827894383847 CAS-2T 1 41847U 16066G 23271.43164100 .00001966 00000-0 30129-3 0 9997 2 41847 98.4948 339.4691 0357388 247.4928 108.8065 14.40044917361667 CAS-4B 1 42759U 17034B 23271.47086202 .00012410 00000-0 58472-3 0 9993 2 42759 43.0141 260.7161 0009953 46.7820 313.3858 15.19412572347336 CAS-4A 1 42761U 17034D 23271.42072573 .00012288 00000-0 57873-3 0 9994 2 42761 43.0127 259.5112 0010730 48.5389 311.6380 15.19426430347328 NIUSat 1 42766U 17036B 23271.60951623 .00040788 00000-0 83215-3 0 9998 2 42766 97.1478 300.9777 0010802 89.3398 270.9089 15.46030571348559 Aalto 1 1 42775U 17036L 23271.61501519 .00027482 00000-0 68924-3 0 9990 2 42775 97.1442 298.9224 0011113 92.3965 267.8554 15.39937257348419 URSA MAIOR 1 42776U 17036M 23271.58790042 .00032342 00000-0 73939-3 0 9991 2 42776 97.1447 300.5967 0010491 89.2213 271.0237 15.42711916348509 Max Valier Sat 1 42778U 17036P 23271.57606876 .00033844 00000-0 72996-3 0 9993 2 42778 97.1437 304.2959 0009218 90.1947 270.0359 15.44450134348656 Pegasus 1 42784U 17036V 23271.61166456 .00086187 00000-0 10993-2 0 9996 2 42784 97.1354 308.4548 0006643 82.7213 277.4798 15.58986622349024 SUCHAI 1 1 42788U 17036Z 23271.64019559 .00871084 36214-3 17425-2 0 9998 2 42788 97.1161 314.9973 0002456 208.7491 151.3653 15.99861099349535 SKCUBE 1 42789U 17036AA 23271.61109695 .00169709 00000-0 13403-2 0 9994 2 42789 97.1283 311.6855 0004597 86.3127 273.8662 15.70861739349235 VENTA 1 1 42791U 17036AC 23271.60775774 .00087680 00000-0 11002-2 0 9993 2 42791 97.1353 309.7027 0005694 84.4935 275.6972 15.59421881349084 Robusta 1B 1 42792U 17036AD 23271.65251945 .00399611 00000-0 16206-2 0 9999 2 42792 97.1224 313.9610 0002010 129.5407 230.6042 15.85261404349408 D-SAT 1 42794U 17036AF 23271.53217534 .00006917 00000-0 53571-3 0 9995 2 42794 97.4739 258.8906 0112752 314.9173 44.2940 14.96780313341385 TechnoSat 1 42829U 17042E 23271.54047061 .00004080 00000-0 38507-3 0 9999 2 42829 97.3845 102.8293 0011968 234.6792 125.3311 14.94216620337921 AO-91 1 43017U 17073E 23271.62257346 .00009112 00000-0 61617-3 0 9990 2 43017 97.6131 151.8953 0230291 87.2892 275.4659 14.87586128316557 PICSAT 1 43132U 18004X 23271.76208509 .01770565 27123-2 16278-2 0 9992 2 43132 97.2981 0.2249 0009489 276.3853 83.6352 16.13014872318824 AO-92 1 43137U 18004AC 23271.47115912 .00073652 00000-0 10553-2 0 9995 2 43137 97.3193 352.3782 0004409 124.7951 235.3719 15.55917887318310 TianYi 2 1 43155U 18008A 23271.74457159 .00028049 00000-0 96126-3 0 9992 2 43155 97.2867 322.0165 0010011 304.1150 55.9141 15.30111950314464 Zhou Enlai 1 43156U 18008B 23271.50415873 .00032799 00000-0 10874-2 0 9996 2 43156 97.2916 322.0855 0007792 306.1967 53.8554 15.31171971314360 TianYi 6 1 43158U 18008D 23271.69504059 .00023000 00000-0 87504-3 0 9993 2 43158 97.2939 318.6539 0008156 312.6936 47.3616 15.26735554314195 S-Net D 1 43186U 18014G 23271.72283463 .00005091 00000-0 39963-3 0 9994 2 43186 97.6120 173.5194 0013502 175.2063 184.9293 15.01289262309086 S-Net B 1 43187U 18014H 23271.25773809 .00004783 00000-0 37577-3 0 9997 2 43187 97.6126 172.9901 0013712 174.7071 185.4301 15.01280922309011 S-Net A 1 43188U 18014J 23271.52428504 .00005101 00000-0 40043-3 0 9994 2 43188 97.6130 173.3462 0013778 173.9754 186.1639 15.01286430309051 S-Net C 1 43189U 18014K 23271.72697258 .00005126 00000-0 40228-3 0 9993 2 43189 97.6142 173.4344 0014386 168.5431 191.6123 15.01285700307633 CubeBel-1 1 43666U 18083E 23271.72293127 .00054299 00000-0 10905-2 0 9999 2 43666 97.3702 304.4423 0009883 106.9881 253.2452 15.46435938273155 Changshagaoxin 1 43669U 18083H 23271.72042063 .00039830 00000-0 96342-3 0 9997 2 43669 97.3717 298.3949 0008619 107.9651 252.2535 15.40989906272850 Ten-Koh 1 43677U 18084G 23271.40481515 .00004265 00000-0 40835-3 0 9991 2 43677 98.0279 53.3161 0015331 163.3436 196.8289 14.93651545267463 PO-101 1 43678U 18084H 23271.69283286 .00003313 00000-0 31757-3 0 9994 2 43678 98.0382 57.8654 0009643 171.3953 188.7433 14.93825371267716 QO-100 1 43700U 18090A 23271.49543333 .00000130 00000-0 00000-0 0 9995 2 43700 0.0205 157.5935 0001262 36.9622 16.6159 1.00273101 17727 Reaktor Hello World 1 43743U 18096AA 23271.20465222 .00302872 00000-0 13192-2 0 9993 2 43743 97.3067 2.5431 0005460 193.1651 166.9477 15.83973701270318 MinXSS-2 1 43758U 18099A 23271.69763623 .00008809 00000-0 65410-3 0 9995 2 43758 97.5954 333.7544 0020965 129.5126 230.7956 15.03090298263285 AO-95 1 43770U 18099N 23271.59462083 .00007640 00000-0 59986-3 0 9997 2 43770 97.5770 330.4256 0015154 161.1959 198.9828 15.01096502263116 RANGE-B 1 43772U 18099Q 23271.66943731 .00009877 00000-0 73442-3 0 9998 2 43772 97.5615 333.5208 0006746 90.6670 269.5329 15.03162858263201 RANGE-A 1 43773U 18099R 23271.61064003 .00004479 00000-0 37079-3 0 9999 2 43773 97.5527 328.1187 0012372 127.8909 232.3436 14.99308032263050 MOVE-II 1 43780U 18099Y 23271.17277260 .00014191 00000-0 97520-3 0 9998 2 43780 97.5626 333.1175 0009315 153.7899 206.3802 15.06016273263229 SNUSat 2 1 43782U 18099AA 23271.10529747 .00006617 00000-0 52416-3 0 9992 2 43782 97.5580 330.3614 0016803 97.0631 263.2504 15.00788620263060 SnugLite 1 43784U 18099AC 23271.61347635 .00006735 00000-0 52540-3 0 9993 2 43784 97.5405 330.4976 0009774 122.0024 238.2152 15.01439782263181 ITASat 1 1 43786U 18099AE 23271.76020907 .00006002 00000-0 47926-3 0 9990 2 43786 97.5599 331.5377 0019064 142.7180 217.5371 15.00484599263176 EAGLET 1 1 43790U 18099AJ 23271.70391737 .00004782 00000-0 38971-3 0 9994 2 43790 97.5622 331.8661 0014837 140.0568 220.1751 14.99862121262899 ESEO 1 43792U 18099AL 23271.10490237 .00002915 00000-0 25073-3 0 9990 2 43792 97.5581 329.4317 0014009 135.0052 225.2308 14.98078873262794 CSIM 1 43793U 18099AM 23271.17418929 .00012762 00000-0 86790-3 0 9990 2 43793 97.5683 334.5743 0016822 133.4777 226.7852 15.06350873263074 Astrocast 0.1 1 43798U 18099AS 23271.62694940 .00011019 00000-0 78651-3 0 9995 2 43798 97.5757 334.2230 0013423 112.0555 248.2098 15.04621067263312 JO-97 1 43803U 18099AX 23271.14534478 .00006810 00000-0 52095-3 0 9995 2 43803 97.5613 331.1545 0013242 113.9329 246.3285 15.02152418263148 Suomi 100 1 43804U 18099AY 23271.70003311 .00007369 00000-0 56728-3 0 9992 2 43804 97.5719 331.4626 0019712 116.7629 243.5616 15.01796823263220 Al Farabi 2 1 43805U 18099AZ 23271.71113038 .00010272 00000-0 74696-3 0 9993 2 43805 97.5520 332.6050 0013761 109.6241 250.6471 15.03937727263303 CHOMPTT 1 43855U 18104G 23271.60262847 .00038746 00000-0 77947-3 0 9994 2 43855 85.0219 95.4788 0009003 291.7554 68.2742 15.46401130266523 ISAT 1 43879U 18111D 23271.74448872 .00009969 00000-0 72440-3 0 9995 2 43879 97.6339 174.7973 0014701 165.0780 195.0882 15.03963170257875 UWE-4 1 43880U 18111E 23271.69108522 .00009289 00000-0 68072-3 0 9997 2 43880 97.6225 175.3016 0018070 177.3164 182.8162 15.03622626257919 Sparrow 1 43881U 18111F 23271.52653478 .00009368 00000-0 67499-3 0 9995 2 43881 97.6400 176.0605 0009624 204.0651 156.0126 15.04351337257913 Lume 1 1 43908U 18111AJ 23271.66284783 .00063277 00000-0 91410-3 0 9998 2 43908 97.1182 153.8902 0010745 163.9628 196.1970 15.55679913265427 FO-99 1 43937U 19003F 23271.58352948 .00184405 00000-0 13587-2 0 9996 2 43937 97.0724 298.6277 0006452 223.5495 136.5260 15.72466478262176 AstroCast 0.2 1 44083U 19018F 23271.71560037 .00210296 00000-0 17733-2 0 9995 2 44083 97.2510 333.4643 0005681 198.3239 161.7820 15.69144864250534 AISTechSat 3 1 44103U 19018AB 23271.70632689 .00044649 00000-0 85305-3 0 9998 2 44103 97.2405 329.8309 0006375 247.6840 112.3735 15.47961243250480 AISat 1 1 44104U 19018AC 23271.54885503 .00036061 00000-0 58418-3 0 9990 2 44104 97.3732 5.1279 0034849 238.4300 121.3548 15.52001147251725 Prox-1 1 44339U 19036A 23271.70693018 .00008701 00000-0 16975-2 0 9997 2 44339 23.9996 105.7082 0009819 330.4823 29.5115 14.60885549226830 Move-IIb 1 44398U 19038N 23271.70821730 .00137332 00000-0 18921-2 0 9994 2 44398 97.6647 260.5582 0003912 253.6069 106.4755 15.56750247234675 SONATE 1 44400U 19038Q 23271.62149419 .00015994 00000-0 66535-3 0 9990 2 44400 97.6940 251.6230 0017788 316.5867 43.3968 15.23714883233974 BeeSat 9 1 44412U 19038AC 23271.75870430 .00040404 00000-0 11480-2 0 9993 2 44412 97.6818 256.2706 0010271 305.2457 54.7824 15.36013953234028 JAISAT-1 1 44419U 19038F 23271.75515096 .00039421 00000-0 11129-2 0 9991 2 44419 97.6807 257.3861 0009480 300.7935 59.2374 15.36228634234404 Taurus 1 1 44530U 19059C 23271.75156146 .00005460 00000-0 13870-2 0 9996 2 44530 98.5609 21.2466 0013824 136.2932 223.9359 14.51098029213659 Duchifat 3 1 44854U 19089C 23271.16128023 .00011974 00000-0 76330-3 0 9994 2 44854 36.9606 195.0338 0005413 80.4746 279.6609 15.08165103208445 OPS-SAT 1 44878U 19092F 23271.50322141 .00037107 00000-0 92111-3 0 9990 2 44878 97.4707 101.9777 0008463 119.7589 240.4500 15.40220479209662 TO-108 1 44881U 19093C 23271.75533154 .00001724 00000-0 21927-3 0 9993 2 44881 97.8548 348.4250 0016055 99.7419 260.5609 14.82797678204148 FloripaSat 1 1 44885U 19093G 23271.76061194 .00005650 00000-0 64012-3 0 9992 2 44885 97.8632 351.8046 0014696 100.4574 259.8299 14.86709399204332 RS-44 1 44909U 19096E 23271.50014276 .00000028 00000-0 74871-4 0 9992 2 44909 82.5163 279.2949 0216480 305.6172 52.4932 12.79722914175372 BY70-2 1 45857U 20042B 23271.72049283 .00028614 00000-0 26022-2 0 9992 2 45857 97.9213 352.2696 0007615 32.2212 327.9472 14.95142896174988 UPMSat 2 1 46276U 20061E 23271.14564176 .00012244 00000-0 48671-3 0 9995 2 46276 97.3370 336.6550 0001254 46.5686 313.5657 15.25438653169975 AmicalSat 1 46287U 20061R 23271.59983530 .00018234 00000-0 77742-3 0 9991 2 46287 97.3902 336.3011 0003392 95.7374 264.4250 15.22985113169431 SALSAT 1 46495U 20068K 23271.41867691 .00007007 00000-0 44818-3 0 9993 2 46495 97.7784 220.6330 0016634 125.0619 235.2172 15.08810698164630 CAPE 3 1 47309U 21002A 23271.71374899 .00066489 00000-0 11515-2 0 9999 2 47309 60.6750 18.2428 0018596 355.6182 4.4752 15.50278584150286 AO-109 1 47311U 21002C 23271.73540441 .00045366 00000-0 92975-3 0 9993 2 47311 60.6803 18.6740 0015778 357.3281 2.7729 15.45642113150267 ExoCube 2 1 47319U 21002L 23271.60162112 .00044405 00000-0 94402-3 0 9992 2 47319 60.6781 21.8732 0016608 356.0848 4.0116 15.44560622150151 UVSQ-SAT 1 47438U 21006AB 23271.69847006 .00022526 00000-0 82394-3 0 9996 2 47438 97.3730 327.4977 0010404 80.3601 279.8813 15.28021093148432 YUSAT 1 1 47439U 21006AC 23271.38839422 .00030012 00000-0 97800-3 0 9993 2 47439 97.3738 328.4281 0009420 79.1339 281.0963 15.31732718148461 SOMP 2b 1 47445U 21006AJ 23271.61111906 .00020535 00000-0 77242-3 0 9993 2 47445 97.3697 326.4906 0010420 85.5920 274.6509 15.27116469148382 IDEASSat 1 47458U 21006AX 23271.11639079 .00021441 00000-0 82862-3 0 9999 2 47458 97.3795 326.8034 0009854 86.7121 273.5245 15.26215265148283 CubeSX-Sirius-HSE 1 47951U 21022V 23271.74622251 .00014674 00000-0 77188-3 0 9993 2 47951 97.4828 167.4848 0017279 343.6017 16.4654 15.15626687138706 CubeSX-HSE 1 47952U 21022W 23271.71481141 .00014726 00000-0 77306-3 0 9992 2 47952 97.4831 167.5109 0017150 343.4482 16.6189 15.15697426138708 KSU-Cubesat 1 47954U 21022Y 23271.69968916 .00016260 00000-0 82618-3 0 9998 2 47954 97.4835 168.0338 0016289 342.3060 17.7603 15.16838031138451 GRBAlpha 1 47959U 21022AD 23271.76170698 .00013270 00000-0 69543-3 0 9993 2 47959 97.4833 167.6577 0016962 343.7182 16.3504 15.15786960137537 Orbicraft-Zorkiy 1 47960U 21022AE 23271.73188342 .00016331 00000-0 83350-3 0 9990 2 47960 97.4866 168.2198 0016526 341.9274 18.1370 15.16678094138248 STECCO 1 47962U 21022AG 23271.73095055 .00030586 00000-0 12315-2 0 9990 2 47962 97.4838 171.6316 0009975 332.4913 27.5795 15.24771370137798 MO-110 1 47964U 21022AJ 23271.52068943 .00032960 00000-0 12840-2 0 9996 2 47964 97.4853 172.1846 0011359 325.7603 34.2901 15.25845217137800 FEES 1 48082U 21022AL 23271.23830085 .00065874 00000-0 18100-2 0 9995 2 48082 97.4828 174.4459 0005321 327.1902 32.9011 15.36969214137633 TUBIN 1 48900U 21059X 23271.68377136 .00012322 00000-0 55085-3 0 9990 2 48900 97.6136 46.1654 0007611 283.0582 76.9803 15.21444404124902 IT-SPINS 1 49017U 21013G 23271.30460529 .00054647 00000-0 92287-3 0 9999 2 49017 51.5877 290.1852 0008097 6.4217 353.6874 15.51048518125661 LEDSAT 1 49069U 21073D 23271.74482268 .00013009 00000-0 67184-3 0 9999 2 49069 97.4737 340.9494 0024229 120.5595 239.8033 15.16173365116583 CUTE 1 49263U 21088D 23271.16148837 .00011022 00000-0 66673-3 0 9993 2 49263 97.5351 335.2684 0015519 268.2914 91.6538 15.10710598109829 TeikyoSat 4 1 49396U 21102B 23271.69372035 .00003604 00000-0 27383-3 0 9996 2 49396 97.5008 320.4472 0014405 89.2907 270.9969 15.02693261103318 Z-Sat 1 49399U 21102E 23271.72476393 .00004170 00000-0 29157-3 0 9995 2 49399 97.4741 321.6340 0023449 77.9380 282.4473 15.05606232103467 KOSEN 1 1 49402U 21102H 23271.60372871 .00006072 00000-0 40052-3 0 9993 2 49402 97.4673 322.2217 0022071 66.7886 293.5663 15.07622418103531 HO-113 1 50466U 21131B 23271.77397165 .00000949 00000-0 32129-3 0 9991 2 50466 98.5469 352.9815 0004343 175.7290 184.3936 14.39073982 92250 Tevel-3 1 50988U 22002E 23271.69815006 .00028750 00000-0 99276-3 0 9994 2 50988 97.4233 338.2256 0006428 218.0594 142.0193 15.29890222 94562 Tevel-8 1 50989U 22002F 23271.72171385 .00029662 00000-0 10264-2 0 9996 2 50989 97.4250 338.3193 0006430 217.2086 142.8709 15.29815189 94563 Tevel-5 1 50998U 22002Q 23271.71120200 .00030800 00000-0 10288-2 0 9997 2 50998 97.4229 338.7595 0007506 212.9098 147.1676 15.30946610 94601 Tevel-6 1 50999U 22002R 23271.70984420 .00030279 00000-0 10117-2 0 9990 2 50999 97.4227 338.7504 0007524 212.7575 147.3200 15.30939848 94608 Tevel-1 1 51013U 22002AF 23271.71148922 .00028870 00000-0 99860-3 0 9995 2 51013 97.4226 338.1630 0006310 217.6010 142.4790 15.29834025 94563 Grizu-263a 1 51025U 22002AT 23271.70999655 .02008536 29025-2 35851-2 0 9992 2 51025 97.4223 349.2849 0010802 270.9307 89.0735 16.02406870 95202 NO-116 1 51031U 22002AZ 23271.43934067 .00068426 00000-0 15630-2 0 9990 2 51031 97.4338 342.5966 0007816 211.3923 148.6858 15.42585651 94762 IRIS-A 1 51044U 22002BN 23271.40007243 .00013538 00000-0 60171-3 0 9993 2 51044 97.4248 335.3706 0006706 231.2171 128.8466 15.21618367 94348 Tevel-7 1 51062U 22002CG 23271.72110299 .00029627 00000-0 10243-2 0 9994 2 51062 97.4246 338.2895 0006401 216.8989 143.1812 15.29844093 94569 Tevel-4 1 51063U 22002CH 23271.73151602 .00030016 00000-0 10401-2 0 9999 2 51063 97.4241 338.2708 0006447 216.7018 143.3782 15.29766783 94567 Tevel-2 1 51069U 22002CP 23271.63413333 .00029146 00000-0 10062-2 0 9991 2 51069 97.4231 338.1302 0006377 218.1757 141.9032 15.29895040 94559 DELFI-PQ 1 51074U 22002CU 23271.43440102 .00088404 00000-0 16744-2 0 9994 2 51074 97.4486 345.8312 0007678 234.5976 125.4557 15.48013906 94905 SO-115 1 51080U 22002DA 23271.42881560 .00036911 00000-0 10994-2 0 9994 2 51080 97.4515 342.7514 0008465 247.2707 112.7642 15.34566192 94698 SO-114 1 51081U 22002DB 23269.44609644 .00043235 00000-0 12820-2 0 9992 2 51081 97.4506 340.7437 0008637 254.0866 105.9426 15.34670381 94391 OreSat0 1 52017U 22026K 23271.59457149 .00024082 00000-0 84948-3 0 9998 2 52017 97.5106 274.5959 0023054 81.6197 278.7655 15.28994641 85329 Planetum 1 1 52738U 22057G 23271.31677005 .00019557 00000-0 81790-3 0 9990 2 52738 97.5472 27.5154 0006235 356.2296 3.8892 15.23615375 74340 Foresail-1 1 52766U 22057AL 23271.77910454 .00014062 00000-0 62252-3 0 9997 2 52766 97.5599 28.8319 0010881 334.1708 25.8983 15.21718465 74429 SNUGLITE 2 1 52899U 22065F 23271.33310513 .00002029 00000-0 43579-3 0 9996 2 52899 98.0839 53.4101 0006786 251.1967 108.8497 14.59610646 65903 CTIM 1 52950U 22074G 23271.62160745 .00132442 00000-0 16988-2 0 9992 2 52950 44.9962 135.8473 0014056 203.1957 156.8305 15.57913526 69648 IO-117 1 53106U 22080B 23269.37565288 -.00000003 00000-0 00000-0 0 9997 2 53106 70.1406 284.5561 0008473 167.7073 192.3795 6.42557266 28255 AstroBioCubeSat 1 53107U 22080C 23025.30817895 -.00000003 00000-0 00000-0 0 9995 2 53107 70.1710 9.4734 0013545 210.3158 149.6718 6.42110537 12478 SelfieSat 1 53951U 22057BC 23271.27191345 .00028106 00000-0 10820-2 0 9996 2 53951 97.5513 28.5047 0007677 343.6146 16.4842 15.26307761 74380 FO-118 1 54684U 22167C 23271.68749939 .00017150 00000-0 87373-3 0 9990 2 54684 97.5757 48.8268 0012397 341.0838 18.9932 15.16785193 44358 SSS-2B 1 56184U 23054G 23271.64910546 .00020131 00000-0 79159-3 0 9999 2 56184 97.3954 165.3074 0011706 42.1208 318.0927 15.25631617 25937 CIRBE 1 56188U 23054L 23271.64453920 .00024078 00000-0 91074-3 0 9995 2 56188 97.3915 165.3603 0010288 36.8128 323.3816 15.26901733 25948 INSPIRE-Sat 7 1 56211U 23054AK 23271.26474637 .00025639 00000-0 91092-3 0 9992 2 56211 97.3927 165.4624 0013931 19.2001 340.9761 15.28909292 25916 RoseyCubesat 1 1 56212U 23054AL 23271.69150546 .00028945 00000-0 10105-2 0 9998 2 56212 97.3936 165.9724 0014040 17.4845 342.6876 15.29455574 25984 ARKSAT 1 1 56311U 98067VC 23271.08314314 .00245786 00000-0 13061-2 0 9990 2 56311 51.6311 165.2324 0007769 147.6444 212.5035 15.79191923 24480 AuroraSat 1 56312U 98067VD 23271.69726128 .00619860 16778-3 16571-2 0 9997 2 56312 51.6241 158.7660 0007820 180.7604 179.3392 15.93860223 24654 Ex-Alta 2 1 56313U 98067VE 23271.07239170 .00266420 00000-0 13679-2 0 9990 2 56313 51.6273 165.1320 0007587 148.7243 211.4211 15.79893597 24504 LightCube 1 56314U 98067VF 23271.70415981 .00468363 93410-4 15588-2 0 9999 2 56314 51.6256 159.5726 0007304 167.5872 192.5314 15.89662488 24661 NEUDOSE 1 56315U 98067VG 23270.82513017 .00145627 00000-0 11722-2 0 9991 2 56315 51.6324 170.2712 0007612 124.8413 235.3301 15.69920728 24396 YukonSat 1 56316U 98067VH 23271.16803360 .00174849 00000-0 11431-2 0 9998 2 56316 51.6317 166.5481 0007599 131.4694 228.6959 15.74726270 24496 URESAT-1 1 56992U 23084BU 23271.54763926 .00019277 00000-0 10488-2 0 9994 2 56992 97.5148 26.4893 0017182 219.5340 140.4640 15.14371185 16273 MRC-100 1 56993U 23084BV 23271.28087101 .00019601 00000-0 10621-2 0 9990 2 56993 97.5152 26.2410 0017227 221.1758 138.8175 15.14510149 16240 UmKA 1 (RS40S) 1 57172U 23091G 23271.70788464 .00004829 00000-0 35193-3 0 9993 2 57172 97.6530 321.4984 0016785 296.0466 63.9032 15.04106860 13991 CubeBel-2 (EU11S) 1 57175U 23091K 23271.74150399 .00006673 00000-0 48967-3 0 9992 2 57175 97.6552 321.4479 0014960 309.8598 50.1311 15.03725934 13995